Regional Weather Roundup
Issued by NWS

Home | Current Version | Previous Version | Graphics & Text | Print | Product List | Glossary On
Versions: 1 2 3 4 5 6 7 8 9 10 11 12 13 14 15 16 17 18 19 20 21 22 23 24 25 26 27 28 29 30 31 32 33 34 35 36 37 38 39 40 41 42 43 44 45 46 47 48 49 50
000
ASUS43 KLMK 290010
RWRKY
KENTUCKY REGIONAL WEATHER ROUNDUP
NATIONAL WEATHER SERVICE LOUISVILLE KY
700 PM EST WED JAN 28 2015

NOTE "FAIR" INDICATES FEW OR NO CLOUDS BELOW 12,000 FEET
WITH NO SIGNIFICANT WEATHER AND/OR OBSTRUCTIONS TO VISIBILITY.

KYZ001>023-026-027-061>063-070>075-290100-
WESTERN AND SOUTH CENTRAL KENTUCKY

CITY           SKY/WX    TMP DP  RH WIND       PRES   REMARKS
PADUCAH        PTCLDY    44  30  57 SE6       30.10F
HENDERSON      CLEAR     39  25  56 SE8       30.14F WCI  34
OWENSBORO      CLEAR     40  23  50 SE8       30.17S WCI  34
HOPKINSVILLE   CLEAR     45  26  47 SE3       30.16F
BOWLING GREEN  PTCLDY    38  21  50 SE5       30.21S WCI  34
GLASGOW        CLEAR     37  18  45 E3        30.20F
$$

KYZ024-025-028>034-038-045-046-053-290100-
NORTH CENTRAL KENTUCKY

CITY           SKY/WX    TMP DP  RH WIND       PRES   REMARKS
LOUISVILLE/SDF MOCLDY    37  16  42 SE7       30.21F WCI  32
LOUISVILLE/LOU PTCLDY    37  14  38 SE5       30.22F WCI  33
FORT KNOX      PTCLDY    34  17  48 E7        30.19S WCI  28
$$

KYZ035>037-039>044-047>052-055>060-089>105-290100-
NORTHEAST KENTUCKY

CITY           SKY/WX    TMP DP  RH WIND       PRES   REMARKS
LEXINGTON      CLEAR     33  19  56 SE5       30.24S WCI  29
COVINGTON      PTCLDY    29  19  66 S8        30.23F WCI  21
FRANKFORT      CLEAR     32  18  56 SE5       30.22F WCI  27
$$

KYZ054-064>069-076>088-106>120-290100-
SOUTHEAST KENTUCKY

CITY           SKY/WX    TMP DP  RH WIND       PRES   REMARKS
JACKSON        CLEAR     33  17  51 CALM      30.25S
LONDON         CLEAR     34  18  52 CALM      30.24R
SOMERSET       CLEAR     36  14  41 CALM      30.25S
MIDDLESBORO    CLEAR     32  24  73 CALM      30.26S
MONTICELLO     CLEAR     30  21  69 CALM      30.26R
$$




USA.gov is the U.S. government's official web portal to all federal, state and local government web resources and services.